STARLINK-32238, 61661

Orbit data source: Space-Track

STARLINK-32238, 61661 is a payload satellite owned by SpaceX/Seattle (US) in LEO that was launched on Sat, 26 Oct 2024 UTC via an FALCON 9 launch vehicle from the Air Force Eastern Test Range (AFETR). Payload-class satellites include a variety of spacecraft equipped with specific instruments for various scientific and technological missions. These include communications satellites like Starlink; space stations such as the ISS; scientific satellites like the Hubble; Earth observation satellites from companies like Planet Labs, Umbra, and HawkEye 360; GPS; miniature CubeSats for education and research; and military/defense satellites.

Loading next visibility...
Identifier
61661, 2024-193A
Orbit
LEO
Country
Flag of USUS
Related business
Manufacturer
SpaceX/Seattle
Mission
Operational Commercial Communications
Bus & Motor
STARLINK V2M, Unknown motor
Mass
730 kg wet, ~700 kg dry
Launch date (UTC)
2024-10-26 (2 years ago)
Launch vehicle
FALCON 9
Launch site
Air Force Eastern Test Range (AFETR)
Object type
Payload
Rocket body
Debris
Shape & HBR
Box + 2 Pan, 17.7 m
Radar Cross Section
33.884 m², Large (>1 m²)

Expand to show TLE details & history
Last TLE update: 11 hours ago

TLE from 11 hours ago
0 STARLINK-32238
1 61661U 24193A   26125.44622444  .00000931  00000-0  43550-4 0  9999
2 61661  53.1601 187.5671 0001181  79.6455 280.4679 15.30194919 85214
Epoch: 2026-05-05T10:42Z
TLE epoch observation values (Epoch: 2026-05-05T10:42:33.791Z)
Latitude
-0.00002°
Longitude
163.60534°
Altitude
475.983 km
Speed
7.629 km/s
True Right ascension
12h 30m 16s
True Declination
0° 00' 00"
Sunlit
Object was in full shadow at epoch
Visualization orbit readout
Latitude
Unknown
Longitude
Unknown
Altitude
Unknown
Speed
Unknown
Apparent Right ascension
Unknown
Apparent Declination
Unknown
Sunlit
N/A
Visualization observer readout
Local Sidereal Time
05:26:19
Azimuth
Unknown
Elevation
Unknown
Doppler factor
Unknown
Orbital elements
Apogee altitude
476.296 km
Perigee altitude
474.677 km
Semi-major axis
6,853.624 km
Eccentricity
0.00012
Inclination
53.1601°
RAAN
187.5671°
Arg. of periapsis
79.6455°
True anomaly
280.45459°
Mean anomaly
280.4679°
Eccentric anomaly
280.46125°
Mean motion
3.82528 °/min
Orbital period
94.11 mins
BSTAR
0.00004355
Loading maneuver chart data...
Computing Atmospheric mass density...
Loading historical data...
Loading historical data...
Loading historical data...
Loading historical data...
Loading historical data...
Loading historical data...
Loading historical data...

Documentation

Showing up to 5 results
|